^^
Garrymore Weather Station Historical Data
 
Daily Summary for August 24, 2019 Units:  Metric    English   Both
Daily Weekly Monthly Yearly Custom
  Current: High: Low: Average:
Temperature: 23 °C 25 °C 12 °C 16.6 °C
Dew Point: 13 °C 16 °C 10 °C 12.7 °C
Humidity: 56% 94% 52% 80%
Wind Speed: 2km/h 16km/h 0km/h 5.7km/h
Wind Gust: 11km/h 27km/h - -
WindSSE - - SSE
Pressure: 1017.1 hPa 1021 hPa 1016.7 hPa -
Precipitation: 0 mm      
Historical Graphs
 
 
Tabular Data for August 24, 2019
Time Temperature Dew Point Pressure Wind Wind Speed Wind Gust Humidity Rainfall Rate (Hourly) solar
00:00 14 °C 11 °C 1021 hPa S 2 km/h 8 km/h 86% 0 mm 0 W/m2
00:05 14 °C 11 °C 1020.89 hPa S 8 km/h 13 km/h 86% 0 mm 0 W/m2
00:10 14 °C 11 °C 1020.89 hPa SSE 3 km/h 13 km/h 86% 0 mm 0 W/m2
00:15 14 °C 11 °C 1020.79 hPa SSE 8 km/h 13 km/h 86% 0 mm 0 W/m2
00:20 14 °C 11 °C 1020.89 hPa SSE 10 km/h 13 km/h 87% 0 mm 0 W/m2
00:25 14 °C 11 °C 1020.79 hPa SSE 10 km/h 14 km/h 87% 0 mm 0 W/m2
00:30 13 °C 11 °C 1020.73 hPa S 5 km/h 14 km/h 88% 0 mm 0 W/m2
00:35 13 °C 11 °C 1020.89 hPa S 5 km/h 18 km/h 88% 0 mm 0 W/m2
00:40 13 °C 11 °C 1020.79 hPa S 3 km/h 14 km/h 88% 0 mm 0 W/m2
00:45 13 °C 11 °C 1020.52 hPa S 5 km/h 14 km/h 88% 0 mm 0 W/m2
00:50 13 °C 11 °C 1020.62 hPa SSE 13 km/h 18 km/h 88% 0 mm 0 W/m2
00:55 13 °C 11 °C 1020.59 hPa SSE 10 km/h 18 km/h 89% 0 mm 0 W/m2
01:00 13 °C 11 °C 1020.79 hPa S 10 km/h 16 km/h 89% 0 mm 0 W/m2
01:05 13 °C 11 °C 1020.89 hPa S 5 km/h 11 km/h 89% 0 mm 0 W/m2
01:10 13 °C 11 °C 1020.79 hPa S 5 km/h 8 km/h 89% 0 mm 0 W/m2
01:15 13 °C 11 °C 1020.79 hPa SSE 5 km/h 11 km/h 89% 0 mm 0 W/m2
01:20 13 °C 11 °C 1020.79 hPa SSE 2 km/h 8 km/h 89% 0 mm 0 W/m2
01:25 13 °C 11 °C 1020.79 hPa SSE 3 km/h 6 km/h 89% 0 mm 0 W/m2
01:30 13 °C 11 °C 1020.86 hPa SE 2 km/h 10 km/h 89% 0 mm 0 W/m2
01:35 13 °C 11 °C 1020.59 hPa SSE 3 km/h 8 km/h 90% 0 mm 0 W/m2
01:40 13 °C 11 °C 1020.49 hPa SSE 2 km/h 8 km/h 91% 0 mm 0 W/m2
01:45 13 °C 11 °C 1020.59 hPa SSE 3 km/h 10 km/h 91% 0 mm 0 W/m2
01:50 13 °C 11 °C 1020.69 hPa S 5 km/h 11 km/h 91% 0 mm 0 W/m2
01:55 13 °C 11 °C 1020.49 hPa SSE 5 km/h 10 km/h 91% 0 mm 0 W/m2
02:00 13 °C 11 °C 1020.49 hPa SSE 2 km/h 8 km/h 91% 0 mm 0 W/m2
02:05 13 °C 11 °C 1020.42 hPa SSE 2 km/h 6 km/h 91% 0 mm 0 W/m2
02:10 13 °C 11 °C 1020.22 hPa SE 2 km/h 5 km/h 91% 0 mm 0 W/m2
02:15 13 °C 12 °C 1020.32 hPa S 5 km/h 8 km/h 92% 0 mm 0 W/m2
02:20 13 °C 12 °C 1020.32 hPa SSE 5 km/h 10 km/h 92% 0 mm 0 W/m2
02:25 13 °C 12 °C 1020.32 hPa S 10 km/h 11 km/h 92% 0 mm 0 W/m2
02:30 13 °C 12 °C 1020.22 hPa S 2 km/h 11 km/h 92% 0 mm 0 W/m2
02:35 13 °C 11 °C 1020.32 hPa Calm   3 km/h 92% 0 mm 0 W/m2
02:40 13 °C 11 °C 1020.29 hPa E 2 km/h 5 km/h 92% 0 mm 0 W/m2
02:45 13 °C 11 °C 1020.29 hPa Calm   5 km/h 92% 0 mm 0 W/m2
02:50 13 °C 11 °C 1020.49 hPa ENE 2 km/h 3 km/h 92% 0 mm 0 W/m2
02:55 13 °C 11 °C 1020.22 hPa ESE 3 km/h 8 km/h 92% 0 mm 0 W/m2
03:00 12 °C 11 °C 1020.22 hPa SSE 3 km/h 10 km/h 92% 0 mm 0 W/m2
03:05 12 °C 11 °C 1020.12 hPa S 5 km/h 10 km/h 92% 0 mm 0 W/m2
03:10 12 °C 11 °C 1020.12 hPa S 8 km/h 11 km/h 92% 0 mm 0 W/m2
03:15 12 °C 11 °C 1020.18 hPa S 5 km/h 11 km/h 92% 0 mm 0 W/m2
03:20 12 °C 11 °C 1020.01 hPa Calm   8 km/h 92% 0 mm 0 W/m2
03:25 12 °C 11 °C 1020.12 hPa SE 2 km/h 3 km/h 92% 0 mm 0 W/m2
03:30 12 °C 11 °C 1020.12 hPa E 2 km/h 3 km/h 92% 0 mm 0 W/m2
03:35 12 °C 11 °C 1020.01 hPa Calm   3 km/h 92% 0 mm 0 W/m2
03:40 12 °C 11 °C 1019.98 hPa ENE 2 km/h 6 km/h 92% 0 mm 0 W/m2
03:45 12 °C 11 °C 1020.01 hPa Calm   5 km/h 92% 0 mm 0 W/m2
03:50 12 °C 11 °C 1020.08 hPa Calm   5 km/h 92% 0 mm 0 W/m2
03:55 12 °C 11 °C 1020.01 hPa SE 2 km/h 5 km/h 92% 0 mm 0 W/m2
04:00 12 °C 11 °C 1020.08 hPa ESE 2 km/h 6 km/h 92% 0 mm 0 W/m2
04:05 12 °C 11 °C 1019.71 hPa ENE 2 km/h 5 km/h 92% 0 mm 0 W/m2
04:10 12 °C 11 °C 1019.78 hPa ENE 2 km/h 5 km/h 92% 0 mm 0 W/m2
04:15 12 °C 11 °C 1019.61 hPa ENE 2 km/h 5 km/h 92% 0 mm 0 W/m2
04:20 12 °C 11 °C 1019.71 hPa Calm   3 km/h 92% 0 mm 0 W/m2
04:25 12 °C 11 °C 1019.78 hPa NE 2 km/h 3 km/h 92% 0 mm 0 W/m2
04:30 12 °C 11 °C 1019.68 hPa Calm   3 km/h 92% 0 mm 0 W/m2
04:35 12 °C 11 °C 1019.71 hPa Calm   5 km/h 92% 0 mm 0 W/m2
04:40 12 °C 11 °C 1019.51 hPa ESE 2 km/h 5 km/h 92% 0 mm 0 W/m2
04:45 12 °C 11 °C 1019.57 hPa Calm   5 km/h 93% 0 mm 0 W/m2
04:50 12 °C 11 °C 1019.51 hPa SE 2 km/h 5 km/h 93% 0 mm 0 W/m2
04:55 12 °C 11 °C 1019.47 hPa ESE 2 km/h 5 km/h 93% 0 mm 0 W/m2
05:00 12 °C 11 °C 1019.51 hPa SE 2 km/h 3 km/h 93% 0 mm 0 W/m2
05:05 12 °C 11 °C 1019.51 hPa ENE 2 km/h 3 km/h 93% 0 mm 0 W/m2
05:10 12 °C 11 °C 1019.4 hPa Calm   5 km/h 93% 0 mm 0 W/m2
05:15 12 °C 11 °C 1019.4 hPa Calm   5 km/h 93% 0 mm 0 W/m2
05:20 12 °C 11 °C 1019.3 hPa Calm   3 km/h 93% 0 mm 0 W/m2
05:25 12 °C 11 °C 1019.2 hPa Calm   2 km/h 93% 0 mm 0 W/m2
05:30 12 °C 11 °C 1019.2 hPa Calm   2 km/h 93% 0 mm 0 W/m2
05:35 12 °C 11 °C 1019.1 hPa NE 2 km/h 8 km/h 93% 0 mm 0 W/m2
05:40 12 °C 11 °C 1019 hPa Calm   5 km/h 93% 0 mm 0 W/m2
05:45 12 °C 11 °C 1019.1 hPa NE 2 km/h 3 km/h 93% 0 mm 0 W/m2
05:50 12 °C 10 °C 1019.1 hPa Calm   3 km/h 91% 0 mm 0 W/m2
05:55 12 °C 10 °C 1019.1 hPa Calm   3 km/h 91% 0 mm 0 W/m2
06:00 12 °C 10 °C 1019.1 hPa Calm   3 km/h 91% 0 mm 0 W/m2
06:05 12 °C 10 °C 1018.8 hPa Calm   2 km/h 91% 0 mm 0 W/m2
06:10 12 °C 10 °C 1019 hPa Calm   3 km/h 91% 0 mm 0 W/m2
06:15 12 °C 10 °C 1018.8 hPa Calm   3 km/h 91% 0 mm 0 W/m2
06:20 12 °C 10 °C 1018.73 hPa E 2 km/h 11 km/h 91% 0 mm 0 W/m2
06:25 12 °C 10 °C 1018.63 hPa SE 3 km/h 10 km/h 91% 0 mm 0 W/m2
06:30 12 °C 11 °C 1018.73 hPa S 3 km/h 11 km/h 93% 0 mm 0 W/m2
06:35 12 °C 11 °C 1018.52 hPa S 3 km/h 11 km/h 93% 0 mm 0 W/m2
06:40 12 °C 11 °C 1018.49 hPa S 8 km/h 11 km/h 93% 0 mm 0 W/m2
06:45 12 °C 11 °C 1018.8 hPa S 5 km/h 11 km/h 93% 0 mm 0 W/m2
06:50 13 °C 11 °C 1018.69 hPa S 5 km/h 11 km/h 93% 0 mm 0 W/m2
06:55 13 °C 11 °C 1018.69 hPa S 8 km/h 11 km/h 93% 0 mm 0 W/m2
07:00 13 °C 12 °C 1018.69 hPa S 8 km/h 14 km/h 93% 0 mm 0 W/m2
07:05 13 °C 12 °C 1018.59 hPa S 8 km/h 13 km/h 93% 0 mm 0 W/m2
07:10 13 °C 12 °C 1018.59 hPa S 10 km/h 14 km/h 94% 0 mm 0 W/m2
07:15 13 °C 12 °C 1018.69 hPa S 8 km/h 14 km/h 94% 0 mm 0 W/m2
07:20 13 °C 12 °C 1018.59 hPa S 5 km/h 11 km/h 94% 0 mm 0 W/m2
07:25 13 °C 12 °C 1018.69 hPa S 8 km/h 11 km/h 93% 0 mm 0 W/m2
07:30 13 °C 12 °C 1018.49 hPa SSE 3 km/h 11 km/h 93% 0 mm 0 W/m2
07:35 13 °C 12 °C 1018.52 hPa SSE 3 km/h 11 km/h 93% 0 mm 0 W/m2
07:40 13 °C 12 °C 1018.52 hPa S 8 km/h 10 km/h 93% 0 mm 0 W/m2
07:45 13 °C 12 °C 1018.52 hPa S 5 km/h 11 km/h 93% 0 mm 0 W/m2
07:50 13 °C 12 °C 1018.49 hPa S 5 km/h 10 km/h 93% 0 mm 0 W/m2
07:55 13 °C 12 °C 1018.59 hPa SSE 5 km/h 10 km/h 93% 0 mm 0 W/m2
08:00 14 °C 12 °C 1018.69 hPa S 5 km/h 10 km/h 93% 0 mm 0 W/m2
08:05 14 °C 13 °C 1018.59 hPa SSE 3 km/h 8 km/h 93% 0 mm 0 W/m2
08:10 14 °C 13 °C 1018.59 hPa SSE 5 km/h 8 km/h 93% 0 mm 0 W/m2
08:15 14 °C 13 °C 1018.63 hPa S 2 km/h 8 km/h 93% 0 mm 0 W/m2
08:20 14 °C 13 °C 1018.59 hPa S 5 km/h 10 km/h 92% 0 mm 0 W/m2
08:25 14 °C 13 °C 1018.49 hPa SSE 3 km/h 11 km/h 92% 0 mm 0 W/m2
08:30 14 °C 13 °C 1018.59 hPa SSE 8 km/h 18 km/h 92% 0 mm 0 W/m2
08:35 14 °C 13 °C 1018.59 hPa SSE 8 km/h 16 km/h 92% 0 mm 0 W/m2
08:40 15 °C 13 °C 1018.52 hPa SSE 10 km/h 16 km/h 92% 0 mm 0 W/m2
08:45 15 °C 14 °C 1018.59 hPa SSE 10 km/h 18 km/h 92% 0 mm 0 W/m2
08:50 15 °C 14 °C 1018.59 hPa S 10 km/h 16 km/h 90% 0 mm 0 W/m2
08:55 15 °C 14 °C 1018.52 hPa S 8 km/h 18 km/h 90% 0 mm 0 W/m2
09:00 16 °C 14 °C 1018.69 hPa S 10 km/h 18 km/h 89% 0 mm 0 W/m2
09:05 16 °C 14 °C 1018.59 hPa S 10 km/h 13 km/h 89% 0 mm 0 W/m2
09:10 16 °C 14 °C 1018.59 hPa S 11 km/h 13 km/h 88% 0 mm 0 W/m2
09:15 16 °C 14 °C 1018.69 hPa S 8 km/h 19 km/h 86% 0 mm 0 W/m2
09:20 16 °C 14 °C 1018.69 hPa SSE 8 km/h 13 km/h 85% 0 mm 0 W/m2
09:25 16 °C 14 °C 1018.86 hPa S 8 km/h 21 km/h 84% 0 mm 0 W/m2
09:30 16 °C 13 °C 1018.69 hPa S 8 km/h 16 km/h 83% 0 mm 0 W/m2
09:35 16 °C 13 °C 1018.73 hPa S 5 km/h 14 km/h 82% 0 mm 0 W/m2
09:40 17 °C 14 °C 1018.9 hPa S 3 km/h 11 km/h 82% 0 mm 0 W/m2
09:45 17 °C 14 °C 1018.59 hPa SSE 3 km/h 11 km/h 82% 0 mm 0 W/m2
09:50 17 °C 14 °C 1018.59 hPa SSE 2 km/h 10 km/h 83% 0 mm 0 W/m2
09:55 17 °C 14 °C 1018.52 hPa SSE 5 km/h 11 km/h 83% 0 mm 0 W/m2
10:00 18 °C 14 °C 1018.69 hPa SSE 8 km/h 16 km/h 82% 0 mm 0 W/m2
10:05 18 °C 14 °C 1018.69 hPa SSE 2 km/h 14 km/h 81% 0 mm 0 W/m2
10:10 18 °C 14 °C 1018.69 hPa SSE 8 km/h 16 km/h 81% 0 mm 0 W/m2
10:15 18 °C 14 °C 1018.59 hPa S 10 km/h 18 km/h 80% 0 mm 0 W/m2
10:20 19 °C 15 °C 1018.52 hPa S 3 km/h 18 km/h 77% 0 mm 0 W/m2
10:25 19 °C 15 °C 1018.49 hPa S 5 km/h 11 km/h 76% 0 mm 0 W/m2
10:30 20 °C 15 °C 1018.52 hPa SSE 2 km/h 11 km/h 74% 0 mm 0 W/m2
10:35 20 °C 15 °C 1018.59 hPa SE 11 km/h 18 km/h 72% 0 mm 0 W/m2
10:40 20 °C 14 °C 1018.69 hPa SE 5 km/h 16 km/h 71% 0 mm 0 W/m2
10:45 20 °C 14 °C 1018.39 hPa S 11 km/h 13 km/h 71% 0 mm 0 W/m2
10:50 19 °C 14 °C 1018.42 hPa SSE 8 km/h 14 km/h 71% 0 mm 0 W/m2
10:55 19 °C 14 °C 1018.39 hPa SSE 14 km/h 19 km/h 71% 0 mm 0 W/m2
11:00 19 °C 14 °C 1018.39 hPa S 10 km/h 19 km/h 70% 0 mm 0 W/m2
11:05 19 °C 14 °C 1018.32 hPa S 5 km/h 16 km/h 70% 0 mm 0 W/m2
11:10 19 °C 14 °C 1018.42 hPa S 11 km/h 21 km/h 71% 0 mm 0 W/m2
11:15 19 °C 14 °C 1018.39 hPa SSE 10 km/h 19 km/h 71% 0 mm 0 W/m2
11:20 20 °C 14 °C 1018.49 hPa SSE 5 km/h 19 km/h 71% 0 mm 0 W/m2
11:25 20 °C 15 °C 1018.39 hPa SSE 8 km/h 18 km/h 71% 0 mm 0 W/m2
11:30 21 °C 15 °C 1018.29 hPa SSE 8 km/h 16 km/h 70% 0 mm 0 W/m2
11:35 21 °C 15 °C 1018.22 hPa SSE 2 km/h 11 km/h 68% 0 mm 0 W/m2
11:40 22 °C 16 °C 1018.39 hPa SSE 5 km/h 13 km/h 68% 0 mm 0 W/m2
11:45 22 °C 16 °C 1018.39 hPa SSE 11 km/h 19 km/h 67% 0 mm 0 W/m2
11:50 22 °C 15 °C 1018.22 hPa SSE 13 km/h 19 km/h 66% 0 mm 0 W/m2
11:55 22 °C 15 °C 1018.46 hPa SSE 3 km/h 19 km/h 66% 0 mm 0 W/m2
12:00 22 °C 15 °C 1018.19 hPa SSE 10 km/h 16 km/h 66% 0 mm 0 W/m2
12:05 22 °C 16 °C 1018.08 hPa S 2 km/h 14 km/h 65% 0 mm 0 W/m2
12:10 23 °C 16 °C 1018.19 hPa SSE 3 km/h 11 km/h 65% 0 mm 0 W/m2
12:15 23 °C 16 °C 1018.19 hPa SSE 8 km/h 19 km/h 63% 0 mm 0 W/m2
12:20 24 °C 16 °C 1018.08 hPa SE 10 km/h 16 km/h 62% 0 mm 0 W/m2
12:25 24 °C 16 °C 1018.39 hPa SSE 10 km/h 16 km/h 62% 0 mm 0 W/m2
12:30 24 °C 16 °C 1017.98 hPa SSE 11 km/h 18 km/h 61% 0 mm 0 W/m2
12:35 24 °C 15 °C 1017.91 hPa SSE 5 km/h 16 km/h 60% 0 mm 0 W/m2
12:40 23 °C 15 °C 1017.88 hPa SSE 2 km/h 13 km/h 61% 0 mm 0 W/m2
12:45 23 °C 15 °C 1017.71 hPa S 10 km/h 19 km/h 61% 0 mm 0 W/m2
12:50 23 °C 15 °C 1017.81 hPa S 8 km/h 16 km/h 63% 0 mm 0 W/m2
12:55 23 °C 16 °C 1017.68 hPa S 8 km/h 18 km/h 63% 0 mm 0 W/m2
13:00 24 °C 16 °C 1017.71 hPa S 10 km/h 19 km/h 61% 0 mm 0 W/m2
13:05 24 °C 16 °C 1017.51 hPa S 8 km/h 14 km/h 61% 0 mm 0 W/m2
13:10 24 °C 16 °C 1017.51 hPa S 14 km/h 24 km/h 60% 0 mm 0 W/m2
13:15 24 °C 15 °C 1017.51 hPa S 16 km/h 24 km/h 59% 0 mm 0 W/m2
13:20 24 °C 15 °C 1017.41 hPa S 11 km/h 24 km/h 57% 0 mm 0 W/m2
13:25 24 °C 15 °C 1017.31 hPa SSE 14 km/h 24 km/h 57% 0 mm 0 W/m2
13:30 25 °C 15 °C 1017.31 hPa SSE 11 km/h 23 km/h 56% 0 mm 0 W/m2
13:35 25 °C 15 °C 1017.61 hPa S 11 km/h 27 km/h 56% 0 mm 0 W/m2
13:40 25 °C 15 °C 1017.31 hPa S 11 km/h 26 km/h 56% 0 mm 0 W/m2
13:45 25 °C 16 °C 1017.27 hPa S 8 km/h 26 km/h 57% 0 mm 0 W/m2
13:50 25 °C 15 °C 1017.2 hPa S 8 km/h 24 km/h 54% 0 mm 0 W/m2
13:55 25 °C 15 °C 1017 hPa SSE 5 km/h 19 km/h 55% 0 mm 0 W/m2
14:00 25 °C 15 °C 1017.1 hPa S 8 km/h 16 km/h 55% 0 mm 0 W/m2
14:05 25 °C 15 °C 1017.2 hPa S 14 km/h 21 km/h 54% 0 mm 0 W/m2
14:10 24 °C 15 °C 1017 hPa SSE 8 km/h 21 km/h 55% 0 mm 0 W/m2
14:15 24 °C 15 °C 1016.9 hPa S 13 km/h 19 km/h 55% 0 mm 0 W/m2
14:20 24 °C 15 °C 1017 hPa SSE 3 km/h 19 km/h 55% 0 mm 0 W/m2
14:25 24 °C 14 °C 1016.8 hPa SE 13 km/h 26 km/h 53% 0 mm 0 W/m2
14:30 24 °C 13 °C 1017.2 hPa SSE 11 km/h 26 km/h 53% 0 mm 0 W/m2
14:35 23 °C 13 °C 1017.07 hPa SSE 8 km/h 19 km/h 54% 0 mm 0 W/m2
14:40 23 °C 13 °C 1016.73 hPa S 11 km/h 26 km/h 54% 0 mm 0 W/m2
14:45 23 °C 13 °C 1016.8 hPa S 10 km/h 23 km/h 53% 0 mm 0 W/m2
14:50 24 °C 14 °C 1016.9 hPa S 11 km/h 26 km/h 54% 0 mm 0 W/m2
14:55 23 °C 13 °C 1016.83 hPa S 13 km/h 26 km/h 52% 0 mm 0 W/m2
15:00 23 °C 13 °C 1017.1 hPa S 5 km/h 26 km/h 53% 0 mm 0 W/m2
15:05 23 °C 13 °C 1017 hPa S 11 km/h 18 km/h 53% 0 mm 0 W/m2
15:10 23 °C 13 °C 1017 hPa S 5 km/h 16 km/h 54% 0 mm 0 W/m2
15:15 23 °C 13 °C 1016.9 hPa S 10 km/h 13 km/h 55% 0 mm 0 W/m2
15:20 23 °C 13 °C 1016.8 hPa S 11 km/h 21 km/h 55% 0 mm 0 W/m2
15:25 23 °C 13 °C 1016.7 hPa SSE 10 km/h 23 km/h 53% 0 mm 0 W/m2
15:30 23 °C 13 °C 1016.9 hPa S 11 km/h 18 km/h 54% 0 mm 0 W/m2
15:35 22 °C 13 °C 1016.8 hPa S 5 km/h 16 km/h 54% 0 mm 0 W/m2
15:40 23 °C 13 °C 1017 hPa S 11 km/h 18 km/h 55% 0 mm 0 W/m2
15:45 22 °C 13 °C 1016.9 hPa SSE 10 km/h 16 km/h 55% 0 mm 0 W/m2
15:50 22 °C 13 °C 1016.9 hPa SSE 8 km/h 19 km/h 55% 0 mm 0 W/m2
15:55 22 °C 13 °C 1016.9 hPa S 5 km/h 11 km/h 56% 0 mm 0 W/m2
16:00 22 °C 13 °C 1017 hPa S 5 km/h 11 km/h 56% 0 mm 0 W/m2
16:05 23 °C 13 °C 1017.1 hPa SSE 2 km/h 11 km/h 56% 0 mm 0 W/m2
Garrymore Weather Station, Geashill, Tullamore, Offaly, Ireland
Compliments of Weather Underground - 2 mb